| time (UTC) | temp F | wind direction | speed knots | gust knots | rain 1hr in | rain 24hr in | rain mn in | humidity % | barometer mb |
| 20260504150752 | 66 | 215 | 4.3 | 12.2 | 0.00 | 0.00 | 0.00 | 37 | 1011.1 |
| 20260504150247 | 65 | 240 | 6.1 | 13.9 | 0.00 | 0.00 | 0.00 | 40 | 1011.1 |
| 20260504140700 | 62 | 217 | 3.5 | 10.4 | 0.00 | 0.00 | 0.00 | 50 | 1011.4 |
| 20260504140200 | 61 | 210 | 4.3 | 10.4 | 0.00 | 0.00 | 0.00 | 51 | 1011.4 |
| 20260504130657 | 58 | 260 | 2.6 | 8.7 | 0.00 | 0.00 | 0.00 | 46 | 1011.8 |
| 20260504130156 | 58 | 221 | 2.6 | 8.7 | 0.00 | 0.00 | 0.00 | 51 | 1011.8 |
| 20260504110106 | 38 | 228 | 1.7 | 4.3 | 0.00 | 0.00 | 0.00 | 78 | 1012.3 |
| 20260504100500 | 39 | 227 | 0.0 | 2.6 | 0.00 | 0.00 | 0.00 | 69 | 1012.1 |
| 20260504081754 | 45 | 285 | 1.7 | 7.8 | 0.00 | 0.00 | 0.00 | 59 | 1011.7 |
| 20260504081248 | 45 | 251 | 2.6 | 7.8 | 0.00 | 0.00 | 0.00 | 59 | 1011.7 |
| 20260504081019 | 45 | 229 | 2.6 | 7.0 | 0.00 | 0.00 | 0.00 | 59 | 1011.7 |
| 20260504080248 | 44 | 284 | 2.6 | 7.8 | 0.00 | 0.00 | 0.00 | 60 | 1011.7 |
| 20260504070242 | 44 | 266 | 1.7 | 7.0 | 0.00 | 0.00 | 0.00 | 60 | 1011.5 |
| 20260504060228 | 45 | 275 | 1.7 | 7.0 | 0.00 | 0.00 | 0.00 | 60 | 1011.2 |
| 20260504050636 | 44 | 321 | 1.7 | 12.2 | 0.00 | 0.00 | 0.00 | 62 | 1011.1 |
| 20260504050137 | 44 | 261 | 1.7 | 7.8 | 0.00 | 0.00 | 0.00 | 63 | 1011.1 |
| 20260504045635 | 44 | 269 | 1.7 | 7.8 | 0.00 | 0.00 | 0.00 | 63 | 1011.2 |
| 20260504045137 | 43 | 260 | 1.7 | 5.2 | 0.00 | 0.00 | 0.00 | 64 | 1011.2 |
| 20260504044639 | 43 | 286 | 1.7 | 5.2 | 0.00 | 0.00 | 0.00 | 64 | 1011.1 |
| 20260504044137 | 42 | 304 | 1.7 | 5.2 | 0.00 | 0.00 | 0.00 | 64 | 1011.1 |
| 20260504043909 | 42 | 246 | 1.7 | 5.2 | 0.00 | 0.00 | 0.00 | 65 | 1011.1 |
| 20260504043133 | 42 | 246 | 0.9 | 5.2 | 0.00 | 0.00 | 0.00 | 65 | 1011.1 |
| 20260504042634 | 42 | 234 | 0.9 | 3.5 | 0.00 | 0.00 | 0.00 | 65 | 1011.1 |
| 20260504042404 | 42 | 295 | 0.9 | 5.2 | 0.00 | 0.00 | 0.00 | 66 | 1011.1 |
| 20260504041905 | 42 | 263 | 0.9 | 5.2 | 0.00 | 0.00 | 0.00 | 68 | 1011.0 |
| 20260504041134 | 41 | 247 | 0.9 | 3.5 | 0.00 | 0.00 | 0.00 | 70 | 1010.8 |
| 20260504040910 | 40 | 234 | 0.9 | 4.3 | 0.00 | 0.00 | 0.00 | 73 | 1010.8 |
| 20260504040634 | 41 | 241 | 0.9 | 4.3 | 0.00 | 0.00 | 0.00 | 71 | 1010.8 |
| 20260504035632 | 40 | 260 | 0.9 | 2.6 | 0.00 | 0.00 | 0.00 | 74 | 1010.7 |
| 20260504035357 | 40 | 282 | 0.9 | 1.7 | 0.00 | 0.00 | 0.00 | 75 | 1010.6 |
| 20260504034621 | 40 | 248 | 0.9 | 1.7 | 0.00 | 0.00 | 0.00 | 75 | 1010.7 |
| 20260504034117 | 40 | 272 | 0.9 | 2.6 | 0.00 | 0.00 | 0.00 | 75 | 1010.8 |
| 20260504033618 | 39 | 256 | 0.9 | 2.6 | 0.00 | 0.00 | 0.00 | 77 | 1010.7 |
| 20260504033117 | 39 | 271 | 0.0 | 1.7 | 0.00 | 0.00 | 0.00 | 77 | 1010.7 |
| 20260504032618 | 38 | 246 | 0.0 | 1.7 | 0.00 | 0.00 | 0.00 | 77 | 1010.7 |
| 20260504032118 | 38 | 265 | 0.0 | 1.7 | 0.00 | 0.00 | 0.00 | 77 | 1010.7 |
| 20260504031618 | 39 | 265 | 0.0 | 1.7 | 0.00 | 0.00 | 0.00 | 76 | 1010.7 |
| 20260504031118 | 39 | 268 | 0.0 | 2.6 | 0.00 | 0.00 | 0.00 | 76 | 1010.6 |
| 20260504030618 | 39 | 268 | 0.0 | 2.6 | 0.00 | 0.00 | 0.00 | 76 | 1010.6 |
| 20260504030118 | 39 | 252 | 0.0 | 0.9 | 0.00 | 0.00 | 0.00 | 76 | 1010.6 |
| 20260504025848 | 39 | 250 | 0.0 | 1.7 | 0.00 | 0.00 | 0.00 | 75 | 1010.6 |
| 20260504025117 | 40 | 250 | 0.9 | 3.5 | 0.00 | 0.00 | 0.00 | 73 | 1010.7 |
| 20260504024619 | 39 | 247 | 0.9 | 3.5 | 0.00 | 0.00 | 0.00 | 74 | 1010.8 |
| 20260504024117 | 39 | 233 | 0.0 | 2.6 | 0.00 | 0.00 | 0.00 | 75 | 1010.7 |
| 20260504023849 | 39 | 229 | 0.0 | 2.6 | 0.00 | 0.00 | 0.00 | 74 | 1010.6 |
| 20260504023118 | 39 | 233 | 0.0 | 2.6 | 0.00 | 0.00 | 0.00 | 73 | 1010.6 |
| 20260504022617 | 39 | 256 | 0.0 | 1.7 | 0.00 | 0.00 | 0.00 | 72 | 1010.7 |
| 20260504022117 | 40 | 258 | 0.0 | 1.7 | 0.00 | 0.00 | 0.00 | 71 | 1010.7 |
| 20260504021617 | 41 | 284 | 0.0 | 2.6 | 0.00 | 0.00 | 0.00 | 71 | 1010.7 |
| 20260504021109 | 40 | 279 | 0.0 | 2.6 | 0.00 | 0.00 | 0.00 | 70 | 1010.7 |
| 20260504020604 | 41 | 249 | 0.0 | 1.7 | 0.00 | 0.00 | 0.00 | 68 | 1010.8 |
| 20260504020058 | 42 | 254 | 0.0 | 1.7 | 0.00 | 0.00 | 0.00 | 67 | 1010.8 |
| 20260504015824 | 42 | 259 | 0.0 | 1.7 | 0.00 | 0.00 | 0.00 | 64 | 1010.7 |
| 20260504015316 | 42 | 260 | 0.0 | 0.9 | 0.00 | 0.00 | 0.00 | 64 | 1010.8 |
| 20260504014540 | 42 | 260 | 0.0 | 1.7 | 0.00 | 0.00 | 0.00 | 62 | 1010.7 |
| 20260504014033 | 42 | 257 | 0.0 | 1.7 | 0.00 | 0.00 | 0.00 | 61 | 1010.7 |
| 20260504013758 | 43 | 261 | 0.0 | 0.9 | 0.00 | 0.00 | 0.00 | 60 | 1010.6 |
| 20260504013022 | 43 | 261 | 0.0 | 1.7 | 0.00 | 0.00 | 0.00 | 60 | 1010.5 |
| 20260504012516 | 43 | 261 | 0.0 | 1.7 | 0.00 | 0.00 | 0.00 | 60 | 1010.4 |
| 20260504012009 | 44 | 265 | 0.0 | 0.0 | 0.00 | 0.00 | 0.00 | 57 | 1010.5 |
| 20260504011504 | 44 | 265 | 0.0 | 0.9 | 0.00 | 0.00 | 0.00 | 58 | 1010.4 |
| 20260504011228 | 45 | 265 | 0.0 | 1.7 | 0.00 | 0.00 | 0.00 | 54 | 1010.3 |
| 20260504010451 | 46 | 264 | 0.0 | 1.7 | 0.00 | 0.00 | 0.00 | 54 | 1010.3 |
| 20260504005946 | 47 | 281 | 0.0 | 2.6 | 0.00 | 0.00 | 0.00 | 52 | 1010.2 |
| 20260504005440 | 47 | 281 | 0.0 | 2.6 | 0.00 | 0.00 | 0.00 | 50 | 1010.1 |
| 20260504004934 | 47 | 286 | 0.9 | 3.5 | 0.00 | 0.00 | 0.00 | 49 | 1010.1 |
| 20260504004428 | 47 | 286 | 0.9 | 3.5 | 0.00 | 0.00 | 0.00 | 49 | 1010.0 |
| 20260504003921 | 48 | 287 | 0.9 | 2.6 | 0.00 | 0.00 | 0.00 | 48 | 1010.0 |
| 20260504003416 | 48 | 284 | 0.9 | 3.5 | 0.00 | 0.00 | 0.00 | 48 | 1009.9 |
| 20260504002909 | 49 | 298 | 1.7 | 3.5 | 0.00 | 0.00 | 0.00 | 47 | 1009.9 |
| 20260504002403 | 49 | 273 | 1.7 | 5.2 | 0.00 | 0.00 | 0.00 | 49 | 1009.8 |
| 20260504001858 | 49 | 281 | 1.7 | 6.1 | 0.00 | 0.00 | 0.00 | 46 | 1009.8 |
| 20260504001352 | 50 | 264 | 2.6 | 6.1 | 0.00 | 0.00 | 0.00 | 44 | 1009.7 |
| 20260504000845 | 50 | 266 | 2.6 | 6.1 | 0.00 | 0.00 | 0.00 | 44 | 1009.7 |
| 20260504000340 | 51 | 305 | 2.6 | 7.8 | 0.00 | 0.00 | 0.00 | 43 | 1009.5 |
| 20260503235834 | 52 | 300 | 3.5 | 7.8 | 0.00 | 0.00 | 0.00 | 43 | 1009.4 |
| 20260503235328 | 52 | 307 | 3.5 | 8.7 | 0.00 | 0.00 | 0.00 | 42 | 1009.3 |
| 20260503234822 | 53 | 281 | 4.3 | 12.2 | 0.00 | 0.00 | 0.00 | 38 | 1009.3 |
| 20260503234315 | 53 | 273 | 4.3 | 13.9 | 0.00 | 0.00 | 0.00 | 39 | 1009.3 |
| 20260503233809 | 54 | 258 | 4.3 | 13.9 | 0.00 | 0.00 | 0.00 | 37 | 1009.2 |
| 20260503233304 | 54 | 286 | 4.3 | 9.6 | 0.00 | 0.00 | 0.00 | 38 | 1009.1 |
| 20260503232757 | 55 | 283 | 4.3 | 11.3 | 0.00 | 0.00 | 0.00 | 36 | 1009.1 |
| 20260503232523 | 55 | 325 | 4.3 | 11.3 | 0.00 | 0.00 | 0.00 | 35 | 1009.1 |
| 20260503231746 | 56 | 277 | 6.1 | 13.9 | 0.00 | 0.00 | 0.00 | 34 | 1009.1 |
| 20260503231240 | 56 | 324 | 7.8 | 14.8 | 0.00 | 0.00 | 0.00 | 33 | 1009.1 |
| 20260503230734 | 56 | 344 | 7.0 | 14.8 | 0.00 | 0.00 | 0.00 | 33 | 1009.1 |
| 20260503230228 | 56 | 286 | 4.3 | 11.3 | 0.00 | 0.00 | 0.00 | 34 | 1009.0 |
| 20260503225722 | 56 | 331 | 4.3 | 11.3 | 0.00 | 0.00 | 0.00 | 34 | 1008.9 |
| 20260503225215 | 56 | 325 | 5.2 | 11.3 | 0.00 | 0.00 | 0.00 | 33 | 1008.9 |
| 20260503224709 | 56 | 306 | 4.3 | 10.4 | 0.00 | 0.00 | 0.00 | 34 | 1008.8 |
| 20260503224203 | 55 | 307 | 3.5 | 9.6 | 0.00 | 0.00 | 0.00 | 34 | 1008.8 |
| 20260503223657 | 55 | 263 | 3.5 | 8.7 | 0.00 | 0.00 | 0.00 | 37 | 1008.8 |
| 20260503223154 | 56 | 322 | 5.2 | 13.0 | 0.00 | 0.00 | 0.00 | 33 | 1008.7 |
| 20260503222655 | 56 | 348 | 7.0 | 16.5 | 0.00 | 0.00 | 0.00 | 33 | 1008.8 |
| 20260503222155 | 56 | 317 | 6.1 | 16.5 | 0.00 | 0.00 | 0.00 | 33 | 1008.8 |
| 20260503221656 | 57 | 300 | 5.2 | 13.0 | 0.00 | 0.00 | 0.00 | 33 | 1008.8 |
| 20260503221155 | 57 | 309 | 6.1 | 17.4 | 0.00 | 0.00 | 0.00 | 32 | 1008.8 |
| 20260503220654 | 58 | 318 | 5.2 | 17.4 | 0.00 | 0.00 | 0.00 | 31 | 1008.8 |
| 20260503220156 | 58 | 325 | 4.3 | 10.4 | 0.00 | 0.00 | 0.00 | 33 | 1008.7 |
| 20260503215655 | 58 | 262 | 5.2 | 13.9 | 0.00 | 0.00 | 0.00 | 33 | 1008.6 |
| 20260503215430 | 58 | 41 | 7.0 | 13.9 | 0.00 | 0.00 | 0.00 | 30 | 1008.7 |
| 20260503214927 | 58 | 324 | 6.1 | 13.9 | 0.00 | 0.00 | 0.00 | 33 | 1008.7 |
| 20260503214154 | 58 | 290 | 6.1 | 13.9 | 0.00 | 0.00 | 0.00 | 31 | 1008.7 |
| 20260503213654 | 58 | 328 | 7.0 | 13.9 | 0.00 | 0.00 | 0.00 | 33 | 1008.7 |
| 20260503213426 | 58 | 275 | 7.0 | 13.9 | 0.00 | 0.00 | 0.00 | 30 | 1008.7 |
| 20260503212655 | 58 | 355 | 7.8 | 17.4 | 0.00 | 0.00 | 0.00 | 32 | 1008.7 |
| 20260503212429 | 58 | 329 | 8.7 | 17.4 | 0.00 | 0.00 | 0.00 | 31 | 1008.5 |
| 20260503211657 | 58 | 313 | 7.0 | 20.0 | 0.00 | 0.00 | 0.00 | 31 | 1008.7 |
| 20260503211158 | 58 | 309 | 7.8 | 20.0 | 0.00 | 0.00 | 0.00 | 31 | 1008.7 |
| 20260503210652 | 58 | 311 | 8.7 | 19.1 | 0.00 | 0.00 | 0.00 | 31 | 1008.7 |
| 20260503210144 | 58 | 330 | 10.4 | 21.7 | 0.00 | 0.00 | 0.00 | 32 | 1008.7 |
| 20260503210139 | 58 | 296 | 9.6 | 21.7 | 0.00 | 0.00 | 0.00 | 30 | 1008.7 |
| 20260503205402 | 58 | 320 | 8.7 | 20.0 | 0.00 | 0.00 | 0.00 | 31 | 1008.7 |
| 20260503204630 | 58 | 336 | 8.7 | 20.0 | 0.00 | 0.00 | 0.00 | 32 | 1008.5 |
| 20260503204130 | 58 | 311 | 8.7 | 20.9 | 0.00 | 0.00 | 0.00 | 31 | 1008.6 |
| 20260503203901 | 57 | 355 | 9.6 | 20.9 | 0.00 | 0.00 | 0.00 | 31 | 1008.7 |
| 20260503203753 | 57 | 329 | 9.6 | 20.9 | 0.00 | 0.00 | 0.00 | 32 | 1008.7 |
| 20260503202630 | 57 | 9 | 9.6 | 24.3 | 0.00 | 0.00 | 0.00 | 31 | 1008.8 |
| 20260503202130 | 58 | 325 | 10.4 | 24.3 | 0.00 | 0.00 | 0.00 | 31 | 1008.8 |
| 20260503201631 | 57 | 279 | 10.4 | 23.5 | 0.00 | 0.00 | 0.00 | 32 | 1008.7 |
| 20260503201131 | 57 | 285 | 10.4 | 21.7 | 0.00 | 0.00 | 0.00 | 30 | 1008.9 |
| 20260503200632 | 57 | 303 | 11.3 | 22.6 | 0.00 | 0.00 | 0.00 | 31 | 1009.0 |
| 20260503200127 | 57 | 274 | 11.3 | 22.6 | 0.00 | 0.00 | 0.00 | 31 | 1009.0 |
| 20260503195626 | 57 | 5 | 9.6 | 17.4 | 0.00 | 0.00 | 0.00 | 32 | 1009.1 |
| 20260503195357 | 58 | 44 | 8.7 | 16.5 | 0.00 | 0.00 | 0.00 | 32 | 1008.9 |
| 20260503194626 | 57 | 331 | 8.7 | 18.2 | 0.00 | 0.00 | 0.00 | 32 | 1008.9 |
| 20260503194131 | 58 | 355 | 7.8 | 18.2 | 0.00 | 0.00 | 0.00 | 30 | 1008.9 |
| 20260503194126 | 56 | 294 | 8.7 | 18.2 | 0.00 | 0.00 | 0.00 | 33 | 1009.0 |
| 20260503193127 | 58 | 304 | 8.7 | 18.2 | 0.00 | 0.00 | 0.00 | 31 | 1009.1 |
| 20260503192627 | 57 | 317 | 7.8 | 18.2 | 0.00 | 0.00 | 0.00 | 33 | 1009.0 |
| 20260503192128 | 58 | 350 | 7.0 | 17.4 | 0.00 | 0.00 | 0.00 | 32 | 1009.2 |
| 20260503191621 | 58 | 312 | 8.7 | 17.4 | 0.00 | 0.00 | 0.00 | 36 | 1009.1 |
| 20260503191346 | 57 | 344 | 8.7 | 18.2 | 0.00 | 0.00 | 0.00 | 34 | 1009.1 |
| 20260503190607 | 56 | 279 | 9.6 | 22.6 | 0.00 | 0.00 | 0.00 | 38 | 1009.3 |
| 20260503185825 | 54 | 323 | 9.6 | 19.1 | 0.00 | 0.00 | 0.00 | 35 | 1009.5 |
| 20260503185049 | 55 | 302 | 7.8 | 19.1 | 0.00 | 0.00 | 0.00 | 37 | 1009.7 |
| 20260503184543 | 56 | 341 | 7.0 | 16.5 | 0.00 | 0.00 | 0.00 | 34 | 1009.5 |
| 20260503184308 | 57 | 5 | 8.7 | 22.6 | 0.00 | 0.00 | 0.00 | 35 | 1009.6 |
| 20260503183531 | 56 | 281 | 9.6 | 22.6 | 0.00 | 0.00 | 0.00 | 36 | 1009.6 |
| 20260503183025 | 56 | 314 | 8.7 | 18.2 | 0.00 | 0.00 | 0.00 | 39 | 1009.5 |
| 20260503182519 | 55 | 17 | 9.6 | 20.0 | 0.00 | 0.00 | 0.00 | 36 | 1009.6 |
| 20260503182013 | 55 | 332 | 10.4 | 20.0 | 0.00 | 0.00 | 0.00 | 35 | 1009.8 |
| 20260503181737 | 56 | 0 | 9.6 | 22.6 | 0.00 | 0.00 | 0.00 | 34 | 1009.6 |
| 20260503181001 | 56 | 310 | 10.4 | 22.6 | 0.00 | 0.00 | 0.00 | 36 | 1009.8 |
| 20260503180455 | 55 | 265 | 10.4 | 21.7 | 0.00 | 0.00 | 0.00 | 39 | 1009.6 |
| 20260503175948 | 56 | 281 | 9.6 | 20.9 | 0.00 | 0.00 | 0.00 | 38 | 1009.7 |
| 20260503175442 | 55 | 355 | 10.4 | 20.9 | 0.00 | 0.00 | 0.00 | 36 | 1009.7 |
| 20260503174936 | 55 | 327 | 10.4 | 22.6 | 0.00 | 0.00 | 0.00 | 38 | 1009.7 |
| 20260503174430 | 54 | 266 | 10.4 | 22.6 | 0.00 | 0.00 | 0.00 | 40 | 1009.7 |
| 20260503173924 | 54 | 312 | 8.7 | 19.1 | 0.00 | 0.00 | 0.00 | 36 | 1009.9 |
| 20260503173418 | 55 | 313 | 7.8 | 15.6 | 0.00 | 0.00 | 0.00 | 39 | 1009.9 |
| 20260503172913 | 55 | 319 | 8.7 | 19.1 | 0.00 | 0.00 | 0.00 | 41 | 1009.9 |
| 20260503172407 | 54 | 37 | 7.8 | 19.1 | 0.00 | 0.00 | 0.00 | 38 | 1009.9 |
| 20260503171901 | 55 | 306 | 7.8 | 18.2 | 0.00 | 0.00 | 0.00 | 41 | 1010.1 |
| 20260503171625 | 53 | 330 | 9.6 | 18.2 | 0.00 | 0.00 | 0.00 | 42 | 1010.0 |
| 20260503170849 | 53 | 5 | 9.6 | 20.0 | 0.00 | 0.00 | 0.00 | 42 | 1010.1 |
| 20260503170343 | 52 | 335 | 8.7 | 20.0 | 0.00 | 0.00 | 0.00 | 41 | 1010.2 |